Globalstar M089

operational
NORAD ID: 37744 Int'l Des: 2011-033 Owner: GLOBL Country: US Constellation: globalstar
LEOCIRCULAR

Über Globalstar M089

Beschreibung wird geladen...

Live-Position

3D-Globus wird geladen...

Nächste Überflüge

Höhenverlauf

Altitude vs Time

uPlot chart will show altitude changes over time

Zweizeiliger Elementsatz

1 37744U 11033F 25299.29019624 -.00000103 00000-0 70566-5 0 9997
2 37744 51.9908 141.9921 0000807 71.2713 99.8858 12.62272136661240
Epoch: 26. Okt. 2025 • Age: 8 hours

Aktueller Status

Höhe 1413.6 km
Geschwindigkeit 7.16 km/s
Subsatellitenpunkt 14.91°N, 56.18°E
Startdatum 13. Juli 2011
Alter 14.2 years
Typ communications

Technische Details

Klassifizierung Payload
Masse 715.00 kg
Trockenmasse 500.00 kg
Gesamtmasse 715.00 kg
Länge 4.00 m
Durchmesser 2.00 m
Spannweite 12.00 m
Form Trap Cyl + 2 Pan
Hersteller THALR
Bus-Typ Prisma
Phasenstatus In Orbit
Besitzer/Staat GLOBL/US

Große Konstellationen

Loading constellations...